Flag for Poland Weather past 2 weeks in Jastrzębie Zdrój, Poland

Now
49 °F

Overcast.


Feels Like: 45 °F
Forecast: 36 / 49 °F
Wind: 9 mph from Southwest

Location: Ostrava / Mosnov

Current Time: Mar 30, 2015 at 12:10:21 PM

Latest Report: Mar 30, 2015 at 11:00 AM


Visibility: 22 mi

Pressure: 29.38 "Hg

Humidity: 65%

Dew point: 37 °F

Location of Jastrzębie ZdrójLocation

Historic Weather in Jastrzębie Zdrój — Graph

°F

Jastrzębie Zdrój temperature yesterday

Maximum temperature yesterday: 48 °F (at 5:00 PM)
Minimum temperature yesterday: 28 °F (at 6:00 AM)
Average temperature yesterday: 42 °F

Past Weeks' High & Low Weather Summary

 TemperatureHumidityPressure
High64 °F (Mar 25, 12:00 PM)98% (Mar 15, 9:00 AM)30.60 "Hg (Mar 15, 9:00 AM)
Low26 °F (Mar 20, 6:00 AM)31% (Mar 18, 2:00 PM)29.35 "Hg (Mar 30, 4:00 AM)
Average44 °F69%30.11 "Hg
* Reported Mar 15 9:00 AM — Mar 30 10:00 AM, Jastrzębie Zdrój, Weather by CustomWeather, © 2015

Note: Actual official high and low records may vary slightly from our data, if they occured in-between our weather recording intervals... More about our weather records

Advertising

Jastrzębie Zdrój weather history for previous 24 hours

 ConditionsComfort  
Time TempWeatherWind HumidityBarometerVisibility
10:00 AM
Mon, Mar 30
48 °FOvercast.12 mph72%29.41 "Hg19 mi
9:00 AM46 °FPartly sunny.9 mph77%29.44 "Hg19 mi
8:00 AM43 °FOvercast.7 mph81%29.44 "Hg16 mi
7:00 AM44 °FLight rain. Overcast.9 mph78%29.41 "Hg25 mi
6:00 AM47 °FLight rain. Overcast.12 mph75%29.35 "Hg19 mi
4:00 AM49 °FLight rain. Overcast.10 mph82%29.35 "Hg12 mi
3:00 AM48 °FLight rain. Overcast.10 mph88%29.38 "Hg9 mi
2:00 AM48 °FLight rain. Overcast.10 mph86%29.41 "Hg9 mi
1:00 AM49 °FLight rain. Overcast.9 mph84%29.47 "Hg7 mi
12:00 AM48 °FLight rain. Overcast.8 mph86%29.47 "Hg7 mi
11:00 PM
Sun, Mar 29
48 °FLight rain. Overcast.9 mph88%29.53 "Hg7 mi
10:00 PM47 °FLight rain. Overcast.9 mph89%29.57 "Hg7 mi
9:00 PM48 °FLight rain. Overcast.9 mph83%29.59 "Hg7 mi
8:00 PM48 °FOvercast.8 mph77%29.62 "Hg9 mi
7:00 PM48 °FOvercast.6 mph76%29.64 "Hg9 mi
6:00 PM48 °FPartly sunny.7 mph75%29.65 "Hg9 mi
5:00 PM48 °FOvercast.7 mph72%29.68 "Hg9 mi
4:00 PM47 °FOvercast.8 mph76%29.71 "Hg11 mi
3:00 PM48 °FOvercast.9 mph72%29.73 "Hg16 mi
2:00 PM46 °FOvercast.9 mph73%29.76 "Hg16 mi
1:00 PM47 °FOvercast.9 mph68%29.77 "Hg16 mi
12:00 PM46 °FPartly sunny.10 mph67%29.79 "Hg11 mi
Weather by CustomWeather, © 2015

See weather overviewHow to use our weather pages